7 * 24
多渠道服务支持
Hi!有什么问题可以问我哦~
STARLINK-36451是美国SpaceX公司星链(Starlink)卫星互联网星座的一员,于2026年1月9日发射。星链项目旨在打造低轨卫星通信网络,为全球尤其是偏远地区提供高速宽带互联网服务。 作为量产型低轨通信卫星,它采用平板设计搭载太阳能电池阵,配备霍尔推进器,具备自主避撞能力,寿命末期会主动离轨再入大气层烧毁,减少太空垃圾影响,服务全球互联网接入。
美国
(US)
| 数据来源 | 国际轨道数据 |
| 星历时间: | 2026-04-03T08:27:35+0800 23小时前 查看轨道信息 |
| 半长轴: | 6861.13km |
| 偏心率: | 0.0001341 |
| 轨道倾角: | 43.003° |
| 近地点辐角 | 256.904° |
| 升交点赤经 | 89.760° |
| 平近点角 | 103.166° |
| 近地点: | 482.072km |
| 远地点: | 483.914km |
| 周期: | 94.266分钟 |
| 每日圈数: | 15.275989 |